Weather History for KDUB - February, 2014

Change the Weather History Date:

Wednesday, February 12, 2014

  Actual Average (KJAC) Record (KJAC)
Temperature  
Mean Temperature 26 °F -  
Max Temperature 32 °F 33 °F 43 °F (1961)
Min Temperature 21 °F 7 °F -20 °F (2004)
Degree Days  
Heating Degree Days 38    
Moisture  
Dew Point 21 °F    
Average Humidity 73    
Maximum Humidity 86    
Minimum Humidity 64    
Precipitation  
Precipitation 0.00 in - - ()
Sea Level Pressure  
Sea Level Pressure 29.86 in    
Wind  
Wind Speed 16 mph (NNW)    
Max Wind Speed 32 mph    
Max Gust Speed 41 mph    
Visibility 8 miles    
Events Snow    
Averages and records for this station are not official NWS values.
T = Trace of Precipitation, MM = Missing Value Source: NWS Daily Summary

Daily Weather History Graph

Daily Weather History Graph

Search for Another Location

Airport or City:

Trip Planner

Search our weather history database for the weather conditions in past years. The results will help you decide how hot, cold, wet, or windy it might be!

Date:

Astronomy

Feb. 12, 2014 Rise Set
Actual Time 7:21 AM MST 5:45 PM MST
Civil Twilight 6:51 AM MST 6:14 PM MST
Nautical Twilight 6:18 AM MST 6:48 PM MST
Astronomical Twilight 5:44 AM MST 7:21 PM MST
Moon 4:00 PM MST (2/12) 5:41 AM MST (2/12)
Length of Visible Light 11h 23m
Length of Day
10h 24m
Waxing Gibbous, 96% of the Moon is Illuminated
Feb 12
Waxing Gibbous
Feb 14
Full
Feb 22
Last Quarter
Mar 1
New
Mar 8
First Quarter

Hourly Weather History & Observations

Time (MST) Temp. Windchill Dew Point Humidity Pressure Visibility Wind Dir Wind Speed Gust Speed Precip Events Conditions
12:15 AM 23.0 °F 12.4 °F 14.0 °F 68% 30.06 in 10.0 mi NNW 10.4 mph 16.1 mph N/A   Scattered Clouds
12:35 AM 23.0 °F 11.7 °F 14.0 °F 68% 30.04 in 10.0 mi North 11.5 mph - N/A   Scattered Clouds
12:55 AM 23.0 °F 12.4 °F 14.0 °F 68% 30.04 in 10.0 mi NNW 10.4 mph - N/A   Clear
1:15 AM 23.0 °F 12.4 °F 14.0 °F 68% 30.03 in 10.0 mi NNW 10.4 mph - N/A   Clear
1:35 AM 21.2 °F 9.5 °F 14.0 °F 74% 30.03 in 10.0 mi NNW 11.5 mph - N/A   Clear
1:55 AM 23.0 °F 11.7 °F 14.0 °F 68% 30.03 in 10.0 mi NNW 11.5 mph - N/A   Clear
2:15 AM 23.0 °F 12.4 °F 14.0 °F 68% 30.03 in 10.0 mi NNW 10.4 mph - N/A   Clear
2:35 AM 23.0 °F 10.6 °F 15.8 °F 74% 30.04 in 10.0 mi NNW 13.8 mph - N/A   Scattered Clouds
2:55 AM 24.8 °F 12.4 °F 15.8 °F 69% 30.02 in 10.0 mi NNW 15.0 mph - N/A   Scattered Clouds
3:15 AM 24.8 °F 11.9 °F 15.8 °F 69% 29.99 in 10.0 mi NNW 16.1 mph - N/A   Scattered Clouds
3:35 AM 26.6 °F 13.8 °F 17.6 °F 69% 30.00 in 10.0 mi NNW 17.3 mph 21.9 mph N/A   Clear
3:55 AM 26.6 °F 14.3 °F 17.6 °F 69% 29.99 in 10.0 mi WNW 16.1 mph 20.7 mph N/A   Mostly Cloudy
4:15 AM 28.4 °F 15.4 °F 17.6 °F 64% 29.98 in 10.0 mi NW 19.6 mph 26.5 mph N/A   Overcast
4:35 AM 26.6 °F 13.4 °F 17.6 °F 69% 29.96 in 10.0 mi NW 18.4 mph 28.8 mph N/A   Scattered Clouds
4:55 AM 26.6 °F 14.3 °F 17.6 °F 69% 29.96 in 10.0 mi NW 16.1 mph 24.2 mph N/A   Clear
5:15 AM 26.6 °F 14.7 °F 17.6 °F 69% 29.94 in 10.0 mi NW 15.0 mph 24.2 mph N/A   Clear
5:35 AM 26.6 °F 13.8 °F 17.6 °F 69% 29.94 in 10.0 mi NW 17.3 mph 21.9 mph N/A   Clear
5:55 AM 26.6 °F 14.3 °F 17.6 °F 69% 29.93 in 10.0 mi NW 16.1 mph 25.3 mph N/A   Clear
6:15 AM 26.6 °F 13.4 °F 17.6 °F 69% 29.90 in 10.0 mi NNW 18.4 mph 24.2 mph N/A   Clear
6:35 AM 26.6 °F 12.4 °F 17.6 °F 69% 29.89 in 10.0 mi NNW 21.9 mph 29.9 mph N/A   Scattered Clouds
6:55 AM 26.6 °F 12.7 °F 17.6 °F 69% 29.87 in 10.0 mi NNW 20.7 mph 32.2 mph N/A   Overcast
7:15 AM 26.6 °F 12.0 °F 17.6 °F 69% 29.86 in 10.0 mi NNW 23.0 mph 34.5 mph N/A   Overcast
7:30 AM 26.6 °F 12.4 °F 17.6 °F 69% 29.86 in 10.0 mi NNW 21.9 mph 34.5 mph N/A   Overcast
7:55 AM 28.4 °F 14.7 °F 19.4 °F 69% 29.85 in 10.0 mi North 21.9 mph 31.1 mph N/A   Overcast
8:15 AM 28.4 °F 14.7 °F 19.4 °F 69% 29.86 in 10.0 mi NNW 21.9 mph 31.1 mph N/A   Overcast
8:35 AM 28.4 °F 14.1 °F 19.4 °F 69% 29.84 in 10.0 mi NNW 24.2 mph 34.5 mph N/A   Overcast
8:55 AM 28.4 °F 14.4 °F 19.4 °F 69% 29.83 in 10.0 mi NNW 23.0 mph 35.7 mph N/A   Overcast
9:15 AM 28.4 °F 12.5 °F 19.4 °F 69% 29.82 in 5.0 mi North 31.1 mph 41.4 mph N/A   Haze
9:35 AM 28.4 °F 12.3 °F 21.2 °F 74% 29.81 in 3.0 mi North 32.2 mph 39.1 mph N/A Snow Light Snow
9:55 AM 28.4 °F 14.1 °F 21.2 °F 74% 29.82 in 2.0 mi North 24.2 mph 38.0 mph N/A Snow Light Snow
10:15 AM 30.2 °F 16.2 °F 23.0 °F 75% 29.82 in 2.0 mi North 25.3 mph 36.8 mph N/A Snow Light Snow
10:35 AM 28.4 °F 14.4 °F 23.0 °F 80% 29.82 in 1.8 mi North 23.0 mph 35.7 mph N/A Snow Light Snow
10:55 AM 30.2 °F 16.5 °F 21.2 °F 69% 29.82 in 5.0 mi North 24.2 mph 35.7 mph N/A   Haze
11:15 AM 32.0 °F 19.5 °F 23.0 °F 69% 29.83 in 4.0 mi NNW 21.9 mph 32.2 mph N/A Snow Light Snow
11:35 AM 32.0 °F 19.5 °F 23.0 °F 69% 29.81 in 7.0 mi North 21.9 mph 28.8 mph N/A   Overcast
11:55 AM 32.0 °F 19.2 °F 23.0 °F 69% 29.80 in 10.0 mi NNW 23.0 mph 35.7 mph N/A   Overcast
12:15 PM 32.0 °F 20.1 °F 23.0 °F 69% 29.81 in 3.0 mi NNW 19.6 mph 32.2 mph N/A Snow Light Snow
12:35 PM 32.0 °F 19.8 °F 23.0 °F 69% 29.80 in 3.0 mi NNW 20.7 mph 28.8 mph N/A Snow Light Snow
12:55 PM 32.0 °F 20.8 °F 23.0 °F 69% 29.77 in 5.0 mi NNW 17.3 mph 26.5 mph N/A   Haze
1:15 PM 32.0 °F 20.8 °F 23.0 °F 69% 29.76 in 7.0 mi NNW 17.3 mph 27.6 mph N/A   Overcast
1:35 PM 32.0 °F 20.8 °F 23.0 °F 69% 29.76 in 10.0 mi NNW 17.3 mph 29.9 mph N/A   Overcast
1:55 PM 32.0 °F 20.1 °F 24.8 °F 75% 29.75 in 4.0 mi NNW 19.6 mph 29.9 mph N/A Snow Light Snow
2:15 PM 32.0 °F 20.5 °F 24.8 °F 75% 29.74 in 4.0 mi NNW 18.4 mph 25.3 mph N/A Snow Light Snow
2:35 PM 32.0 °F 21.2 °F 26.6 °F 80% 29.75 in 4.0 mi NNW 16.1 mph 26.5 mph N/A Snow Light Snow
2:55 PM 32.0 °F 21.6 °F 26.6 °F 80% 29.75 in 4.0 mi NNW 15.0 mph 23.0 mph N/A Snow Light Snow
3:15 PM 30.2 °F 18.9 °F 26.6 °F 86% 29.75 in 3.0 mi NNW 16.1 mph 21.9 mph N/A Snow Light Snow
3:35 PM 30.2 °F 19.3 °F 26.6 °F 86% 29.75 in 4.0 mi NNW 15.0 mph 25.3 mph N/A Snow Light Snow
3:55 PM 30.2 °F 18.5 °F 26.6 °F 86% 29.76 in 3.0 mi NNW 17.3 mph 24.2 mph N/A Snow Light Snow
4:15 PM 32.0 °F 21.6 °F 26.6 °F 80% 29.77 in 4.0 mi NW 15.0 mph 21.9 mph N/A Snow Light Snow
4:35 PM 30.2 °F 20.2 °F 26.6 °F 86% 29.79 in 3.0 mi NW 12.7 mph 23.0 mph N/A Snow Light Snow
4:55 PM 30.2 °F 19.3 °F 26.6 °F 86% 29.79 in 1.8 mi NNW 15.0 mph 20.7 mph N/A Snow Light Snow
5:15 PM 30.2 °F 21.3 °F 26.6 °F 86% 29.79 in 2.0 mi NW 10.4 mph - N/A Snow Light Snow
5:35 PM 30.2 °F 20.2 °F 26.6 °F 86% 29.80 in 5.0 mi NW 12.7 mph - N/A Snow Light Snow
5:55 PM 30.2 °F 20.2 °F 26.6 °F 86% 29.81 in 5.0 mi NW 12.7 mph - N/A Snow Light Snow
6:15 PM 32.0 °F 22.5 °F 26.6 °F 80% 29.81 in 7.0 mi NW 12.7 mph - N/A   Overcast
6:35 PM 32.0 °F 21.6 °F 26.6 °F 80% 29.81 in 7.0 mi NW 15.0 mph 25.3 mph N/A Snow Light Snow
6:55 PM 32.0 °F 20.1 °F 24.8 °F 75% 29.80 in 10.0 mi WNW 19.6 mph 28.8 mph N/A   Mostly Cloudy
7:15 PM 32.0 °F 18.1 °F 24.8 °F 75% 29.80 in 3.0 mi WNW 27.6 mph 34.5 mph N/A Snow Light Snow
7:35 PM 32.0 °F 19.8 °F 24.8 °F 75% 29.81 in 7.0 mi WNW 20.7 mph 36.8 mph N/A   Clear
7:55 PM 32.0 °F 22.1 °F 23.0 °F 69% 29.82 in 10.0 mi NW 13.8 mph 32.2 mph N/A   Scattered Clouds
8:15 PM 32.0 °F 20.1 °F 23.0 °F 69% 29.83 in 10.0 mi WNW 19.6 mph 34.5 mph N/A   Scattered Clouds
8:35 PM 32.0 °F 19.5 °F 23.0 °F 69% 29.84 in 10.0 mi WNW 21.9 mph 31.1 mph N/A   Clear
8:55 PM 32.0 °F 20.8 °F 23.0 °F 69% 29.85 in 10.0 mi WNW 17.3 mph 31.1 mph N/A   Clear
9:15 PM 32.0 °F 22.1 °F 23.0 °F 69% 29.85 in 10.0 mi NW 13.8 mph 19.6 mph N/A   Clear
9:35 PM 32.0 °F 20.8 °F 23.0 °F 69% 29.86 in 10.0 mi NW 17.3 mph - N/A   Clear
9:55 PM 32.0 °F 20.5 °F 23.0 °F 69% 29.86 in 10.0 mi NNW 18.4 mph 23.0 mph N/A   Clear
10:15 PM 32.0 °F 22.1 °F 23.0 °F 69% 29.86 in 10.0 mi NW 13.8 mph 20.7 mph N/A   Mostly Cloudy
10:35 PM 32.0 °F 22.1 °F 24.8 °F 75% 29.86 in 10.0 mi NW 13.8 mph 18.4 mph N/A   Mostly Cloudy
10:55 PM 32.0 °F 23.0 °F 23.0 °F 69% 29.87 in 10.0 mi NW 11.5 mph 19.6 mph N/A   Scattered Clouds
11:15 PM 32.0 °F 24.2 °F 23.0 °F 69% 29.87 in 10.0 mi NNW 9.2 mph 21.9 mph N/A   Scattered Clouds
11:35 PM 32.0 °F 23.0 °F 23.0 °F 69% 29.86 in 10.0 mi North 11.5 mph 16.1 mph N/A   Mostly Cloudy
11:55 PM 32.0 °F 23.6 °F 23.0 °F 69% 29.87 in 10.0 mi North 10.4 mph 20.7 mph N/A   Mostly Cloudy